Flag for Germany Weather past 2 weeks in Siegburg, North Rhine-Westphalia, Germany

Now
46 °F

Overcast.


Feels Like: 46 °F
Forecast: 53 / 67 °F
Wind: 1 mph from West

Location: Bonn-Hangelar

Current Time: May 27, 2015 at 6:10:24 AM

Latest Report: May 27, 2015 at 5:00 AM


Visibility: 19 mi

Pressure: 30.28 "Hg

Humidity: 85%

Dew point: 42 °F

Location of SiegburgLocation

Historic Weather in Siegburg — Graph

°F

Siegburg temperature yesterday

Maximum temperature yesterday: 57 °F (at 4:00 PM)
Minimum temperature yesterday: 45 °F (at 4:00 AM)
Average temperature yesterday: 52 °F

Past Weeks' High & Low Weather Summary

 TemperatureHumidityPressure
High66 °F (May 12, 5:00 AM)100% (May 15, 6:00 AM)30.37 "Hg (May 15, 6:00 AM)
Low39 °F (May 21, 5:00 AM)36% (May 13, 5:00 PM)29.67 "Hg (May 18, 8:00 PM)
Average53 °F75%30.08 "Hg
* Reported May 12 5:00 AM — May 27 5:00 AM, Siegburg, Weather by CustomWeather, © 2015

Note: Actual official high and low records may vary slightly from our data, if they occured in-between our weather recording intervals... More about our weather records

Advertising

Siegburg weather history for previous 24 hours

 ConditionsComfort  
Time TempWeatherWind HumidityBarometerVisibility
5:00 AM
Wed, May 27
46 °FOvercast.1 mph85%30.28 "Hg19 mi
4:00 AM47 °FOvercast.1 mph80%30.28 "Hg25 mi
3:00 AM48 °FOvercast.1 mph78%30.28 "Hg25 mi
2:00 AM47 °FOvercast.1 mph82%30.28 "Hg25 mi
1:00 AM48 °FOvercast.1 mph73%30.27 "Hg28 mi
12:00 AM47 °FPassing clouds.2 mph72%30.27 "Hg28 mi
11:00 PM
Tue, May 26
50 °FOvercast.2 mph69%30.26 "Hg25 mi
10:00 PM50 °FPassing clouds.3 mph64%30.24 "Hg28 mi
9:00 PM53 °FSunny.6 mph55%30.22 "Hg22 mi
8:00 PM56 °FPassing clouds.7 mph49%30.20 "Hg19 mi
7:00 PM57 °FScattered clouds.6 mph54%30.19 "Hg19 mi
6:00 PM57 °FOvercast.7 mph55%30.17 "Hg17 mi
5:00 PM56 °FOvercast.6 mph56%30.16 "Hg25 mi
4:00 PM57 °FPartly sunny.6 mph54%30.16 "Hg25 mi
3:00 PM56 °FOvercast.5 mph53%30.15 "Hg25 mi
2:00 PM55 °FOvercast.6 mph61%30.16 "Hg25 mi
1:00 PM54 °FOvercast.6 mph62%30.16 "Hg25 mi
12:00 PM54 °FPartly sunny.3 mph64%30.15 "Hg25 mi
11:00 AM53 °FScattered clouds.3 mph63%30.15 "Hg19 mi
10:00 AM50 °FPartly sunny.5 mph71%30.15 "Hg16 mi
9:00 AM49 °FPartly sunny.3 mph79%30.14 "Hg12 mi
8:00 AM47 °FOvercast.3 mph90%30.12 "Hg16 mi
7:00 AM46 °FOvercast.2 mph90%30.12 "Hg16 mi
Weather by CustomWeather, © 2015

See weather overviewHow to use our weather pages